Location: Cardiff
(53.7833°N, 113.6000°W)
Time: 20:30:19
(UTC+00:00)

RS-15 - Pass Details

Date: 05 December 2023
Orbit: 1893 x 2151 km, 64.8° (Epoch: 24 February)

Event Time Altitude Azimuth Distance (km) Brightness Sun altitude
Exits shadow 09:02:04 42° 42° (NE) 2,629 8.7 -53.6°
Drops below altitude 10° 09:10:01 10° 80° (E) 4,364 10.2 -52.8°
Sets 09:13:28 0° 86° (E) 5,335 10.7 -52.5°
